ECMWFFLT1_925_thetae_021.txt.gz
Theta_e
349 347 348 351 352 352 352 356 357 357 358 357 358 358 356 355 357 360 362 364 366 368 368 367 366 367 367 365 363 363 363 363 363 362 361 360 358 357 357 357 358 356 355 355 353 351 349 347 347 346 346 346 345 344 343 342 342 341 340 339 339 340 339
347 344 344 348 351 353 354 355 358 359 357 358 359 358 357 356 358 361 362 364 367 368 369 369 368 368 368 366 365 364 364 364 363 362 361 360 359 358 357 357 358 356 354 353 352 351 350 348 347 346 346 346 345 343 343 343 342 340 339 339 339 340 340
345 345 344 347 351 355 355 354 357 358 358 358 359 359 359 358 359 361 361 365 368 368 369 370 370 369 368 368 367 366 365 365 364 363 361 361 360 359 358 358 358 356 354 354 353 352 351 349 348 346 346 346 344 343 343 343 342 340 339 340 340 340 340
344 348 347 348 352 356 356 354 355 358 358 357 359 361 361 360 361 362 362 366 368 369 370 370 371 370 369 369 368 367 367 366 365 364 362 361 360 360 359 358 358 356 354 354 354 353 351 349 348 347 346 345 343 342 343 342 342 341 340 340 341 340 339
343 348 350 351 352 356 356 354 354 357 358 356 359 362 363 362 363 363 364 366 367 368 369 369 369 370 370 369 368 368 368 368 367 365 363 362 361 361 361 359 358 356 354 354 354 353 352 349 348 347 345 343 342 343 343 342 342 341 340 340 340 340 339
340 345 350 351 352 356 356 354 354 357 356 356 359 362 362 362 363 363 363 365 365 366 368 367 368 369 370 369 367 367 368 369 369 367 365 363 362 362 361 360 359 356 354 354 355 354 352 349 348 346 344 342 342 343 343 343 342 341 341 340 340 339 339
338 345 350 352 352 354 355 355 355 357 357 356 357 360 361 361 363 361 362 363 363 364 365 365 365 367 370 369 367 368 368 369 370 368 366 364 363 363 363 362 360 358 355 356 356 354 351 348 346 346 344 342 342 342 343 343 342 341 341 340 340 339 339
338 343 349 353 352 350 354 356 357 357 358 354 354 358 359 359 360 357 358 360 360 360 362 361 361 365 369 369 368 368 368 368 370 369 367 365 364 364 364 363 361 359 357 357 356 353 350 348 345 345 344 342 342 342 342 342 342 341 341 340 340 340 340
340 344 350 353 348 347 352 356 358 359 360 357 353 356 359 357 355 353 354 357 357 357 358 357 358 363 368 370 368 368 368 368 370 370 368 366 364 364 363 361 361 359 358 358 355 352 351 348 345 344 343 343 343 343 343 343 343 342 342 341 340 340 340
342 346 353 355 348 347 350 353 359 362 363 363 358 356 359 356 352 351 351 353 355 354 355 355 355 360 368 370 368 368 369 369 369 369 368 367 364 363 360 359 360 360 358 357 354 352 351 348 345 344 343 343 344 343 343 343 343 343 342 340 339 340 341
348 349 355 358 353 352 351 354 364 368 369 370 362 357 359 356 351 350 350 351 353 353 353 353 353 357 366 369 367 368 369 369 368 369 368 365 363 362 359 356 359 360 358 356 354 352 351 348 346 344 344 345 344 343 343 343 343 343 342 339 338 339 341
351 353 359 361 357 354 356 363 369 372 375 372 362 358 360 358 352 349 350 352 352 353 353 353 353 355 363 367 367 367 369 369 368 368 367 364 362 360 357 355 358 359 357 355 353 352 351 348 345 345 347 345 342 342 343 343 342 342 340 337 338 339 340
354 356 362 363 358 357 362 369 370 371 372 369 362 359 361 360 354 352 352 353 351 352 354 354 354 353 359 366 367 367 369 369 368 369 367 363 361 360 358 356 355 355 356 354 352 351 350 347 345 346 348 343 338 342 345 342 339 340 338 336 337 339 340
360 359 363 362 359 360 364 367 368 370 367 365 363 362 362 361 358 355 355 354 353 352 352 355 356 354 357 363 367 368 370 370 370 369 367 363 361 361 359 357 352 350 353 354 352 350 349 347 346 347 347 344 342 344 346 340 337 339 339 336 337 339 340
353 356 361 362 360 362 364 365 367 368 366 366 366 364 363 362 361 359 358 357 356 353 351 355 357 357 358 363 367 369 370 372 371 369 367 364 362 361 360 359 354 348 349 354 353 349 348 348 348 348 346 345 344 344 341 338 337 339 337 334 337 340 340
338 343 352 360 362 363 363 365 368 369 369 368 367 365 364 363 362 361 360 360 358 354 353 355 359 360 360 363 367 370 371 372 370 369 368 365 363 362 361 359 356 351 350 354 353 349 347 348 348 346 344 344 344 342 338 336 335 333 330 332 338 341 340
335 334 338 349 358 363 365 366 368 370 370 369 367 366 365 364 363 362 361 361 360 358 355 356 361 363 362 364 369 371 372 371 369 368 367 365 364 362 361 359 358 355 353 353 351 349 347 346 346 346 344 344 343 340 337 336 334 330 328 332 338 341 340
335 334 336 339 349 363 368 367 369 372 369 366 367 367 366 366 365 362 361 361 361 359 357 358 364 365 365 367 370 372 372 370 369 368 366 365 363 362 361 360 358 356 354 352 351 349 348 347 347 345 342 341 339 336 337 336 334 332 329 330 336 340 340
335 333 336 339 346 361 368 365 367 371 369 366 366 368 367 367 365 363 362 361 361 360 358 360 365 367 368 370 371 372 372 369 369 368 365 364 362 360 360 359 357 356 355 353 352 351 351 349 346 343 340 340 338 335 336 335 334 333 330 327 332 338 338
335 333 335 336 338 354 367 368 367 369 371 369 366 366 367 366 366 364 362 362 362 361 360 361 366 369 371 372 372 372 371 368 368 368 365 363 361 359 358 358 357 356 354 354 353 353 352 349 345 343 340 339 337 335 335 335 335 334 331 327 329 333 334
337 336 336 336 337 353 368 371 367 368 371 368 364 365 366 365 366 364 362 362 363 363 362 363 367 370 373 372 371 371 370 368 368 367 365 362 360 358 357 356 357 356 354 353 352 352 350 347 344 343 340 338 337 336 336 337 336 336 335 331 329 330 331
334 335 334 337 348 362 369 369 366 369 370 366 363 365 365 364 365 363 360 363 365 365 364 365 368 372 373 372 371 371 370 368 367 366 364 360 359 358 357 356 356 356 354 352 351 350 348 346 344 342 340 338 338 338 338 338 337 338 337 335 332 330 331
331 335 334 335 345 354 361 365 367 368 369 365 363 364 364 364 364 362 361 364 365 366 366 366 369 372 373 373 372 372 371 368 367 366 363 360 359 358 357 356 355 354 354 352 350 349 347 345 343 341 341 339 339 339 339 338 338 338 338 337 334 332 334
329 331 332 334 340 347 358 366 366 366 367 363 361 363 364 363 363 363 363 365 366 367 367 368 369 372 373 374 373 372 371 369 367 365 363 361 359 357 356 355 353 353 353 351 350 349 347 344 342 341 340 339 338 338 338 338 339 339 338 337 335 334 338
331 332 332 334 342 354 363 366 364 364 366 363 362 364 364 363 364 364 364 365 367 367 368 369 370 372 373 373 372 371 370 368 366 365 364 361 359 356 354 355 353 352 351 350 349 349 347 345 343 341 339 338 337 337 338 338 339 339 338 338 336 335 338
335 336 335 337 348 360 365 364 364 366 364 361 363 365 364 362 364 364 363 365 367 366 368 369 369 371 372 372 371 370 368 366 366 364 363 361 358 354 353 353 352 350 350 350 348 347 346 344 342 340 338 337 336 336 336 337 337 338 338 338 337 335 337
340 339 337 341 353 362 363 362 363 364 361 362 365 364 362 362 363 364 364 365 366 366 366 368 370 371 371 370 370 368 366 365 364 363 362 360 358 354 352 352 350 349 349 348 346 345 343 341 340 339 337 336 335 334 334 334 335 337 337 337 337 335 337
343 342 344 350 357 361 361 361 362 362 362 363 363 360 360 362 364 365 365 364 364 365 367 369 371 370 370 369 367 365 364 363 362 362 361 358 356 354 352 352 350 349 348 346 344 343 342 340 340 339 338 337 336 335 336 335 336 338 338 337 337 333 333
348 350 354 357 358 359 359 360 359 359 359 359 358 360 364 368 369 369 368 367 368 369 369 370 370 369 368 367 365 363 362 361 361 360 358 356 354 353 352 351 350 349 347 345 343 342 341 340 340 340 340 340 339 338 339 338 338 339 338 337 335 331 331
356 357 358 357 356 357 358 359 360 361 361 362 364 367 369 370 371 371 371 371 369 368 369 369 368 367 365 364 363 362 360 360 359 359 357 355 353 352 352 351 349 348 345 343 342 342 341 341 341 341 341 341 341 341 341 339 338 339 338 337 334 332 332
356 355 355 355 357 360 360 361 363 364 364 365 366 367 368 369 371 370 370 368 365 365 365 365 365 364 362 361 361 360 358 358 357 356 355 353 352 352 352 350 348 347 344 343 342 342 342 343 343 342 342 342 342 341 340 339 338 337 337 335 333 332 332
354 354 354 356 358 360 361 362 363 363 364 362 360 361 364 366 367 367 366 363 362 362 362 362 361 361 359 359 358 357 356 355 354 353 352 352 351 352 351 348 347 345 344 343 342 342 343 344 344 343 343 342 342 340 339 338 336 334 333 332 330 331 331
351 352 354 354 354 354 354 355 355 356 358 358 357 359 361 363 364 364 362 361 361 360 360 360 359 358 358 357 356 354 354 353 352 351 351 351 350 350 349 347 345 344 343 343 343 343 344 343 343 343 342 341 341 340 338 338 336 332 330 329 330 330 330
354 354 353 351 350 350 351 351 351 352 354 355 354 354 355 356 357 358 358 357 358 358 358 358 357 357 357 356 354 352 351 351 350 350 350 349 347 347 347 345 344 343 343 342 343 343 344 342 342 342 342 341 340 339 339 338 337 333 330 330 330 329 328
353 355 356 356 355 355 355 355 355 354 353 352 351 350 350 350 351 353 354 355 356 358 358 357 357 357 355 353 352 350 349 349 348 348 348 346 343 341 341 341 342 343 341 340 340 341 342 342 342 341 341 340 339 338 339 338 337 336 333 332 330 328 327
348 350 353 354 354 355 357 357 356 355 354 352 351 350 350 349 350 351 352 354 355 357 357 356 356 354 352 350 350 349 348 347 346 346 346 345 341 337 335 336 338 341 339 337 337 338 339 340 340 339 338 339 338 337 337 336 336 336 334 332 330 328 327
345 346 348 350 351 353 354 354 354 354 353 351 350 349 349 349 349 350 352 354 355 356 355 355 354 352 350 348 347 347 347 346 346 346 345 344 342 340 336 334 334 335 335 335 335 336 336 337 337 337 337 337 337 337 335 334 334 333 331 330 328 327 327
345 345 347 349 350 352 352 352 353 352 351 351 350 349 349 349 350 351 353 354 354 354 354 354 352 349 347 347 346 346 346 347 346 346 345 343 342 341 340 338 334 331 330 331 332 333 333 333 334 336 336 335 335 334 332 331 330 328 327 327 327 326 326

ECMWFFLT1_925_thetae_024.txt.gz
Theta_e
348 348 349 350 352 351 355 360 359 356 359 361 360 359 359 360 361 363 364 366 367 368 368 366 366 366 366 367 366 364 362 361 362 362 363 361 359 358 358 358 358 357 357 356 355 354 352 350 349 349 348 345 344 345 343 342 341 340 340 340 340 340 339
347 346 347 347 349 352 355 359 359 358 359 361 360 360 359 359 362 363 364 366 368 368 369 367 366 366 366 367 366 365 362 362 363 363 363 362 360 358 358 358 358 357 357 357 355 353 351 349 349 349 348 346 344 345 344 342 342 342 342 340 339 340 340
346 346 346 346 351 355 356 357 358 357 358 359 359 359 359 359 361 363 364 366 368 369 369 368 367 366 367 367 366 365 364 363 364 363 363 363 361 358 358 358 358 357 356 356 355 353 351 349 349 349 348 346 345 346 345 343 342 343 341 340 339 340 340
346 345 348 350 354 359 358 355 357 358 357 357 359 358 359 359 360 362 363 366 368 369 370 369 367 366 366 367 367 365 364 364 364 363 362 363 361 359 358 358 358 358 356 356 355 353 352 349 348 348 347 347 346 346 345 344 343 342 341 339 339 339 340
352 349 349 351 351 356 359 356 355 358 358 357 358 358 359 360 360 362 362 364 367 368 370 369 367 366 366 367 367 366 365 364 364 364 362 362 360 360 359 359 359 358 357 356 355 353 352 351 348 347 347 347 346 345 345 345 344 342 340 340 339 339 340
353 351 350 349 346 350 355 352 351 355 357 358 358 359 360 360 359 360 361 363 366 367 370 370 368 367 367 368 367 365 365 365 365 364 362 361 360 360 360 359 358 358 357 356 355 354 353 351 350 348 347 347 347 345 344 344 343 342 341 341 340 340 341
348 349 350 348 345 346 349 349 350 353 356 357 358 359 360 359 359 358 359 362 365 368 370 370 369 368 367 367 367 366 366 366 366 365 363 361 360 361 360 359 358 358 357 355 355 355 354 352 351 349 348 347 346 345 344 344 343 342 341 341 341 341 340
347 350 349 348 346 345 346 349 352 353 355 357 357 359 359 360 359 357 358 362 364 367 369 369 370 367 366 366 366 366 366 367 367 366 364 362 361 361 361 360 359 358 356 355 355 355 354 353 351 349 348 347 345 344 344 343 343 343 342 341 341 341 340
346 351 350 347 344 343 345 351 354 355 354 354 355 358 360 360 359 357 359 362 364 366 368 368 368 367 367 367 367 366 366 367 368 367 365 364 362 361 361 361 360 359 357 356 355 355 355 353 351 349 348 346 344 343 344 343 343 343 342 341 341 341 341
351 353 351 348 347 348 350 352 357 358 357 354 353 357 362 361 360 360 360 361 363 365 367 367 366 367 368 368 367 366 366 367 369 368 366 365 363 362 361 361 361 359 358 356 355 357 356 354 352 349 348 346 343 342 344 344 343 343 343 342 341 341 341
362 360 356 354 353 354 353 355 360 362 363 361 357 358 363 362 362 362 360 361 361 363 365 364 363 365 368 369 368 367 367 367 369 369 368 366 364 363 362 362 363 361 359 357 356 357 357 354 352 350 348 345 342 342 344 344 343 343 343 342 342 341 340
366 363 362 361 359 357 358 361 365 367 370 368 363 361 364 364 363 363 360 360 360 360 361 361 359 361 366 369 368 368 367 367 367 369 369 367 364 362 362 362 362 362 361 358 357 358 357 355 351 349 348 345 343 342 343 344 344 344 343 343 342 341 340
368 368 367 366 364 363 369 374 371 372 376 372 365 361 363 364 363 362 361 359 358 358 358 358 357 358 363 368 369 367 368 367 365 367 368 367 365 363 362 362 361 362 362 360 359 359 357 355 352 349 347 345 344 342 342 343 344 344 343 343 343 341 340
366 367 367 370 371 373 381 383 378 375 376 373 366 360 361 362 361 361 360 357 356 355 355 356 356 356 360 366 368 367 368 367 365 365 366 367 365 362 362 361 359 359 361 361 360 359 357 355 353 349 347 346 344 343 343 344 344 344 343 343 343 342 340
356 356 363 370 374 377 384 388 387 382 377 375 370 363 361 360 360 361 358 355 353 353 353 355 355 355 358 364 368 367 367 367 365 364 365 366 365 363 362 361 359 357 359 361 360 358 356 355 353 350 348 346 344 344 344 343 343 343 343 343 343 341 339
345 348 358 366 372 376 380 385 390 388 384 381 375 366 362 360 360 360 357 353 352 351 352 354 354 355 357 362 368 367 367 368 367 365 365 366 365 364 362 361 359 357 358 360 360 358 356 355 353 350 349 347 346 346 345 343 342 342 342 342 341 339 338
338 339 348 359 368 373 376 380 386 388 387 384 378 370 363 361 362 360 356 353 351 351 352 354 355 355 356 362 367 368 368 369 368 367 367 366 366 364 362 361 359 358 358 359 359 357 355 355 353 350 349 350 348 345 344 343 343 342 340 338 337 336 337
341 342 346 358 368 372 373 374 379 383 380 375 374 371 365 364 365 362 358 354 351 351 352 355 357 356 356 362 367 369 370 370 370 370 369 368 367 365 363 362 361 360 359 358 358 357 355 354 353 350 350 351 348 343 343 345 344 341 337 334 333 334 337
341 341 346 361 371 371 368 365 369 375 373 369 369 370 366 366 366 364 361 357 353 352 351 355 360 359 357 362 368 370 371 371 373 373 371 370 368 366 365 363 362 362 360 359 357 357 356 354 352 350 351 351 348 345 346 346 344 340 336 332 331 334 336
344 341 338 354 368 369 367 368 370 371 371 368 367 366 365 365 365 365 363 360 357 355 352 354 361 362 361 365 370 372 372 373 374 374 373 372 369 367 366 364 364 363 362 360 358 356 356 354 351 351 351 350 349 348 346 344 341 339 334 329 330 333 335
346 346 341 347 360 368 373 375 374 374 372 369 366 366 365 365 365 365 364 362 361 360 356 356 363 365 365 367 371 374 374 374 374 373 373 372 369 368 367 365 365 363 360 360 357 355 354 353 351 351 350 349 348 347 345 342 339 337 333 328 328 329 329
340 341 344 344 349 370 382 376 372 374 373 369 367 365 364 364 364 364 363 362 363 363 361 363 368 369 368 371 374 375 375 375 374 373 372 370 369 368 366 365 364 362 361 359 357 356 355 354 352 351 349 348 347 345 343 339 337 336 333 328 327 325 325
334 333 339 341 342 368 382 374 370 374 373 370 367 364 363 364 364 365 364 362 363 363 364 369 372 371 371 375 377 376 375 375 374 372 370 368 367 366 364 364 363 361 360 358 356 356 356 355 353 351 349 347 345 343 341 338 335 335 332 329 328 327 326
332 331 336 337 335 359 377 374 370 373 374 371 368 364 364 365 364 366 365 363 363 364 367 373 374 373 374 377 378 376 374 373 373 371 368 367 365 363 362 361 361 360 359 357 356 355 355 354 353 351 349 347 344 343 340 338 336 335 333 332 332 332 331
331 329 331 335 332 345 368 373 370 372 375 373 369 366 366 366 366 367 366 365 364 364 368 374 376 375 376 377 376 375 373 372 371 370 367 365 363 361 360 359 358 358 358 356 355 354 353 352 351 350 348 346 343 342 340 339 338 335 334 335 335 336 335
336 334 333 336 329 332 358 371 372 375 376 372 369 367 366 366 367 367 366 366 366 364 368 374 376 377 376 375 375 374 372 370 370 369 366 364 362 360 359 357 356 356 355 355 354 353 352 351 350 348 346 345 344 342 340 340 339 337 336 337 337 337 336
343 340 334 336 332 336 360 372 374 373 372 370 368 366 365 367 368 367 367 367 368 367 368 373 377 377 376 374 375 373 371 370 369 368 366 363 361 359 358 357 355 354 354 353 352 351 351 350 348 347 346 344 344 342 340 340 339 338 337 337 338 338 336
350 350 349 357 358 359 366 373 372 371 370 369 368 365 365 367 368 368 369 370 370 370 370 374 377 377 375 375 373 371 369 369 368 367 365 363 361 359 357 356 354 353 352 351 351 350 349 347 345 344 344 343 342 341 339 339 338 338 338 338 338 338 336
360 362 361 367 368 364 367 371 371 368 366 366 366 365 366 370 370 371 372 372 372 372 372 375 377 375 374 373 371 369 368 367 366 366 364 363 360 358 355 354 352 351 350 349 348 347 346 345 343 342 342 342 342 341 338 337 337 337 338 338 337 338 337
364 365 361 362 365 362 363 369 368 364 361 363 364 365 368 371 371 372 373 374 372 373 374 376 375 374 372 370 368 368 366 366 366 364 363 362 359 356 354 353 351 351 349 347 346 345 344 343 342 341 342 342 342 341 340 340 339 337 337 337 337 337 337
353 356 355 356 361 362 362 365 366 364 365 368 368 369 371 370 370 373 375 375 373 373 375 374 372 371 369 367 367 366 365 365 364 362 360 359 357 355 353 352 351 350 348 346 344 343 343 342 342 342 343 343 343 343 343 342 341 338 338 337 336 337 337
350 350 349 350 357 362 361 361 363 366 372 374 373 374 374 372 373 375 375 374 374 373 372 370 369 367 366 365 365 363 362 362 361 359 357 356 355 354 353 352 351 349 346 345 344 343 343 343 343 343 343 343 343 344 343 341 339 338 338 337 337 337 336
358 357 357 358 361 362 362 361 363 367 372 374 374 374 374 372 372 372 372 372 371 370 368 367 366 365 364 363 362 360 360 359 358 356 355 354 354 353 351 350 349 347 346 345 344 344 344 344 344 345 345 345 344 344 342 340 338 338 338 337 337 336 334
365 364 363 362 361 361 363 366 367 368 370 372 372 371 369 368 368 367 367 368 368 366 365 364 363 363 362 360 359 358 357 355 355 354 352 351 351 351 350 349 348 346 345 345 345 345 345 344 345 345 345 344 344 343 342 340 337 337 338 338 336 334 332
363 363 362 361 358 355 357 360 361 362 363 363 365 364 363 362 362 362 363 364 363 363 362 360 360 360 358 357 356 355 354 353 353 351 347 344 344 344 345 346 346 344 343 342 343 344 344 344 345 345 343 343 343 342 341 340 338 337 337 336 334 332 332
357 357 359 360 358 355 355 356 356 356 356 354 355 357 357 357 357 358 359 360 360 360 359 358 358 356 355 354 353 352 351 351 351 348 343 341 341 340 339 341 342 342 340 340 340 341 342 343 344 342 342 342 342 341 341 340 339 338 336 334 333 332 331
352 353 355 356 356 355 356 355 354 355 354 353 353 353 353 354 356 357 358 358 358 358 358 357 356 354 353 353 351 350 349 349 349 347 343 339 339 338 336 335 336 337 337 338 338 338 339 340 342 341 341 341 341 341 340 339 339 338 335 332 332 331 330
347 349 351 352 354 355 356 355 355 355 355 354 354 355 355 355 356 357 358 358 358 358 357 356 354 353 352 350 348 348 348 348 348 347 343 340 338 337 335 333 331 330 332 334 335 336 337 338 339 339 340 340 339 339 338 337 337 336 334 333 332 331 330

ECMWFFLT1_925_thetae_030.txt.gz
Theta_e
343 344 343 344 345 346 348 349 348 347 347 349 350 350 351 352 354 355 357 357 356 356 357 357 356 356 356 357 356 356 356 355 354 353 354 356 355 355 355 355 355 355 355 355 355 354 354 353 353 352 350 348 347 347 347 346 344 341 339 338 340 339 336
343 345 344 344 345 345 347 348 347 346 346 349 350 350 351 351 353 355 356 357 357 357 358 358 358 357 356 357 357 357 356 356 355 354 354 355 356 355 355 355 355 355 355 354 354 354 353 353 352 351 350 348 346 345 345 344 343 341 339 339 340 338 336
343 344 344 345 347 347 347 347 347 346 346 348 350 350 351 351 352 354 356 358 358 358 358 358 359 358 357 357 357 357 357 357 356 356 355 356 356 356 356 355 355 355 355 354 354 354 353 353 352 351 351 349 346 345 343 342 342 341 339 339 339 338 337
344 344 345 345 348 347 347 348 347 346 346 348 350 350 350 351 352 353 355 357 358 358 358 358 359 359 358 358 357 357 357 357 357 357 356 356 356 356 356 356 356 356 355 354 354 353 352 352 352 351 351 350 348 346 343 342 343 342 339 339 339 338 337
346 344 345 345 347 347 348 348 346 346 346 347 350 350 351 351 352 353 354 356 358 358 358 358 358 359 359 358 358 357 357 357 358 357 357 357 357 357 357 357 357 356 354 353 353 352 352 352 351 351 351 350 349 347 345 344 345 343 340 339 339 338 337
346 346 345 345 345 346 347 348 347 346 346 347 349 350 351 351 352 353 354 356 358 358 358 358 358 359 359 360 359 358 358 357 358 358 358 358 358 358 358 357 357 355 354 353 352 352 352 351 351 351 351 350 349 348 346 347 346 343 340 339 338 338 338
345 346 346 344 345 346 346 347 347 346 347 347 349 351 352 352 352 353 354 356 357 358 358 359 359 359 360 360 360 360 359 359 358 359 359 359 359 358 358 357 356 355 354 353 353 352 352 352 351 351 351 351 350 348 346 347 346 343 341 340 338 338 339
345 346 346 345 345 345 346 348 347 347 348 348 349 351 352 353 353 353 355 356 357 359 359 359 360 360 360 360 360 360 360 360 359 360 359 360 359 359 358 357 356 355 354 354 353 353 352 352 352 351 352 351 350 349 346 346 345 343 341 341 339 338 338
345 345 345 346 345 344 346 348 348 348 348 349 349 351 353 353 354 354 355 356 357 359 359 360 360 360 360 361 360 361 361 361 361 360 360 360 360 360 358 357 356 355 355 354 353 353 353 353 352 352 352 351 351 349 346 345 344 342 342 342 340 338 338
345 346 346 346 345 346 346 347 350 351 351 351 351 352 354 354 354 355 356 357 358 359 360 361 361 361 361 361 361 361 362 362 362 361 361 361 360 360 359 357 356 355 355 355 354 354 354 353 352 352 351 351 350 349 347 345 344 343 343 342 341 339 338
346 346 347 347 346 347 347 348 352 354 354 353 351 352 354 354 355 356 356 358 359 360 361 361 362 362 362 362 362 362 362 362 362 361 361 361 361 360 360 358 357 356 355 355 355 355 354 354 353 352 351 351 350 349 348 346 345 344 343 343 342 340 339
347 348 347 348 347 348 349 350 352 355 355 353 351 353 354 354 355 356 356 358 359 360 362 361 362 363 362 362 362 362 363 362 362 362 361 361 360 360 360 359 358 357 356 356 355 356 355 354 354 353 351 351 350 349 348 346 346 345 344 343 343 341 339
347 348 347 347 347 347 350 352 352 353 355 353 351 353 355 354 356 356 357 358 359 361 362 362 363 363 363 363 363 362 363 363 362 362 362 361 361 360 360 359 358 357 357 356 356 356 355 355 354 353 352 351 350 349 348 347 346 345 344 344 343 342 340
347 346 346 347 347 348 350 352 353 353 354 353 351 352 355 355 355 356 357 358 359 361 362 362 364 363 363 363 363 363 363 362 363 362 361 361 361 360 360 359 359 358 357 357 356 355 355 355 354 353 352 350 349 349 348 347 346 345 345 344 344 342 341
352 347 346 347 347 348 349 351 353 353 353 353 351 351 354 355 355 356 356 357 359 360 362 363 363 363 364 364 363 363 363 363 362 362 362 362 361 360 360 359 359 359 358 357 357 356 355 355 355 354 352 351 350 349 348 347 346 346 345 344 344 343 342
355 351 347 347 348 348 348 351 353 353 353 355 354 352 353 354 356 355 356 357 358 359 361 363 363 364 364 364 364 363 363 363 363 362 362 362 361 361 360 359 359 359 358 357 357 356 356 355 355 354 353 352 351 349 348 347 347 346 345 345 344 343 342
352 350 346 346 347 346 347 349 352 353 354 356 354 352 351 354 356 356 356 357 357 358 360 361 363 364 364 364 364 363 363 363 363 363 362 362 361 361 360 359 359 358 358 358 357 356 356 356 355 355 354 353 351 350 349 347 347 346 345 345 345 344 343
351 348 347 347 347 348 349 350 352 353 354 355 352 351 352 354 355 355 356 356 356 358 359 360 362 363 363 364 364 364 363 363 363 362 362 362 361 361 361 360 359 359 358 358 357 357 356 356 355 355 354 354 352 351 350 349 348 347 346 345 345 344 343
356 349 348 348 346 348 349 349 352 353 353 352 351 351 352 354 355 356 356 356 356 357 358 360 361 362 363 364 363 363 363 363 363 362 362 362 361 361 361 360 359 359 358 357 357 357 357 356 355 355 355 354 353 352 351 350 349 348 347 346 345 344 343
360 355 351 349 347 348 349 349 351 351 351 350 350 351 353 354 355 357 356 356 356 356 357 359 360 361 362 363 363 364 363 362 363 362 362 362 361 361 361 360 360 359 358 357 357 357 357 357 356 355 355 354 354 353 352 351 350 349 347 346 345 345 344
356 356 354 352 349 349 349 351 352 351 349 349 349 350 351 353 355 356 356 357 356 356 357 358 360 361 362 363 363 363 363 363 363 362 362 362 361 361 361 360 360 359 358 358 357 357 357 356 356 355 355 354 354 353 352 352 351 349 348 346 346 345 344
350 350 350 355 358 356 355 352 350 350 350 348 349 351 350 351 354 356 357 358 357 356 357 358 359 361 361 362 363 363 363 363 362 362 362 361 361 361 361 361 360 360 359 358 358 357 358 357 357 356 355 354 354 353 353 352 350 349 348 347 347 345 344
345 346 353 360 359 354 351 349 348 348 348 348 350 351 351 351 352 354 356 358 357 357 357 357 358 360 361 362 362 363 364 363 363 362 361 361 361 361 361 361 361 361 360 359 358 358 358 358 357 357 356 355 354 354 353 351 350 349 349 348 347 345 344
341 338 351 364 364 355 347 347 350 351 351 352 352 351 353 352 351 353 355 356 358 358 357 358 357 358 360 361 361 362 364 363 363 363 362 361 361 361 361 362 361 361 361 359 359 358 358 358 358 357 357 355 354 354 352 351 350 349 348 348 347 345 344
352 342 343 349 355 356 350 347 350 353 355 356 355 353 355 354 353 353 354 356 357 357 357 357 357 357 358 359 360 361 363 363 363 363 362 361 361 360 361 361 361 362 361 360 360 359 359 359 358 357 357 355 355 354 352 351 350 349 349 348 346 345 345
369 369 367 355 346 348 349 349 352 354 356 357 356 356 356 356 355 355 354 356 356 357 357 357 357 357 357 357 359 359 361 363 363 363 363 362 362 361 361 361 361 362 361 360 360 359 359 359 358 357 356 355 354 353 352 351 350 349 348 348 346 346 345
368 375 383 375 356 345 345 350 353 353 353 355 357 358 359 359 358 355 355 356 356 356 357 357 357 357 356 356 357 357 359 362 363 363 363 363 362 362 361 361 361 361 362 361 360 359 358 358 357 356 354 354 353 352 352 351 350 349 348 348 347 346 345
365 365 366 368 363 344 339 350 356 353 352 354 355 358 360 360 360 357 356 356 356 356 357 356 356 356 355 355 356 355 357 361 362 363 363 363 363 363 362 362 362 361 362 360 359 358 356 355 355 354 352 352 352 351 351 351 350 350 349 348 347 346 345
363 364 360 365 368 353 347 366 371 356 354 357 356 358 360 359 359 359 357 357 357 356 356 356 356 356 354 354 354 355 357 359 361 363 363 363 364 363 363 363 362 361 361 359 358 357 354 353 353 351 350 350 349 350 350 349 348 348 346 345 344 343 343
362 362 357 360 364 354 355 376 375 355 354 361 359 359 361 360 360 359 358 359 358 358 357 356 355 355 354 353 354 355 357 359 362 363 364 364 365 364 363 363 361 360 359 358 356 355 353 351 351 349 347 347 346 346 347 346 346 345 343 343 342 341 340
355 354 351 352 355 353 356 367 363 352 353 357 356 358 360 360 361 360 358 360 360 359 360 359 358 358 356 355 356 357 359 362 363 364 365 365 365 363 362 361 359 357 356 355 355 353 351 349 348 348 346 345 344 345 345 344 344 343 342 342 341 340 338
349 349 348 347 348 350 353 355 352 349 349 348 348 352 354 356 358 358 356 359 361 362 361 360 362 363 361 360 361 362 364 365 365 365 365 364 363 362 361 359 358 355 353 352 351 350 348 346 345 345 344 343 343 343 343 343 343 342 341 341 340 339 338
349 348 347 345 345 347 348 348 347 346 346 345 345 348 350 351 354 355 357 359 361 362 363 365 366 367 366 365 366 365 366 365 363 362 362 361 360 359 357 357 356 353 350 348 347 346 345 344 343 342 341 341 341 340 340 341 341 340 340 339 339 338 336
350 347 344 343 344 344 344 344 343 343 344 344 345 346 347 348 350 353 358 361 362 363 366 368 368 368 367 367 366 365 364 363 361 359 358 356 356 355 354 353 351 348 345 346 346 345 343 342 342 341 341 341 340 339 339 338 338 339 338 338 337 338 335
351 349 345 343 344 344 343 342 342 342 342 342 342 343 345 345 346 350 354 356 359 362 363 364 365 366 365 365 364 363 362 360 357 355 353 351 351 350 348 348 346 343 342 344 346 347 345 343 343 342 342 343 342 340 339 338 338 338 339 338 337 337 335
349 348 346 343 343 344 343 342 342 341 340 339 341 343 344 344 343 347 350 353 355 355 354 354 355 354 353 354 354 353 354 353 350 347 346 345 344 342 341 341 342 343 344 345 346 347 347 346 346 344 343 343 342 341 341 340 340 340 340 339 338 337 336
346 348 347 344 343 343 343 343 342 341 340 339 339 341 343 343 342 343 347 350 351 349 346 345 346 345 344 344 344 343 344 343 342 341 340 339 337 336 335 336 338 342 345 345 345 346 347 346 345 344 343 341 341 341 341 341 341 341 341 341 340 338 337
344 346 346 346 346 345 344 344 343 342 341 340 339 337 338 340 342 343 344 345 346 345 343 341 341 340 340 339 339 339 339 338 337 337 337 336 335 335 335 334 333 335 339 343 344 344 344 343 343 342 342 341 341 342 342 342 342 341 341 341 340 338 337

ECMWFFLT1_925_thetae_033.txt.gz
Theta_e
340 342 342 343 345 345 346 346 345 344 344 345 346 346 347 348 350 351 351 351 351 352 352 353 354 354 354 354 353 353 353 353 353 353 352 352 352 352 352 351 352 353 354 354 354 354 353 353 354 354 354 353 353 351 346 343 341 340 339 338 339 337 336
340 341 341 342 344 345 346 346 345 344 344 345 346 346 347 348 349 351 351 351 351 351 352 353 353 354 354 354 354 353 354 353 353 353 353 353 352 352 351 351 352 353 354 354 354 354 353 353 354 354 354 353 352 350 346 344 343 342 340 337 336 336 337
340 341 341 341 344 345 346 346 345 345 344 345 346 346 347 347 349 351 351 351 351 351 352 352 353 354 354 354 354 354 354 354 353 353 353 353 353 352 352 351 352 353 354 354 354 353 353 354 354 353 353 353 352 350 348 346 345 344 342 339 336 335 336
340 340 341 341 343 344 345 346 346 345 345 345 346 346 347 348 348 350 351 352 352 351 352 352 353 354 354 354 354 354 354 354 354 353 353 353 353 352 352 352 352 353 353 353 353 353 353 354 354 354 353 353 352 350 349 347 346 346 344 342 340 337 336
342 341 341 341 342 343 344 345 345 345 345 345 346 346 347 348 348 349 351 352 352 352 352 352 353 353 354 354 354 354 354 354 354 354 353 353 353 353 353 352 353 353 353 353 353 353 354 354 354 354 353 352 351 350 350 348 347 346 346 345 343 340 338
342 342 342 341 341 342 343 344 344 345 345 345 346 346 347 348 348 349 351 352 353 352 352 353 353 353 354 354 354 355 355 355 354 354 354 353 353 353 353 353 353 354 353 353 353 353 353 354 354 353 353 353 352 351 350 349 347 346 346 346 344 343 340
341 342 342 341 341 341 342 342 342 343 345 345 345 346 348 348 349 349 351 352 353 353 353 353 354 354 354 354 354 355 355 355 355 354 354 354 353 353 353 353 353 354 354 354 353 354 354 354 354 353 353 353 352 351 350 349 347 346 346 346 345 343 340
342 343 341 342 342 341 342 342 342 342 344 345 345 346 347 348 349 349 350 352 353 354 354 354 354 355 355 355 354 355 355 355 355 355 355 355 354 354 353 353 353 353 354 354 354 354 354 353 353 353 353 353 352 351 350 349 348 346 345 345 344 342 339
342 343 342 342 341 341 342 342 342 342 342 344 345 345 347 348 348 349 350 351 353 354 355 354 355 355 356 356 355 355 355 355 355 355 355 355 355 355 354 354 353 354 354 354 354 354 353 353 353 353 352 352 351 351 350 350 349 347 345 344 343 342 340
342 343 343 343 341 342 343 342 344 345 344 345 344 344 347 348 348 349 350 351 352 354 355 355 355 355 356 356 356 356 355 355 355 355 356 356 355 355 355 354 354 354 354 354 354 354 353 353 353 352 352 351 351 351 350 350 349 348 346 344 343 343 341
344 344 344 344 342 343 344 344 346 347 347 346 343 344 346 347 348 349 349 351 352 353 355 355 356 356 356 357 357 357 356 356 356 356 356 356 356 356 355 355 355 354 355 355 354 354 354 353 352 352 351 351 350 350 350 350 349 348 347 345 344 344 343
344 346 346 345 345 344 344 346 347 348 349 346 343 344 346 347 349 348 349 350 351 352 354 355 356 356 356 357 357 357 358 357 356 356 356 356 356 356 356 356 356 355 355 355 354 354 354 353 352 352 351 351 351 350 350 350 349 348 348 347 345 345 343
344 346 347 346 345 344 346 347 348 349 349 347 344 344 346 347 348 349 349 350 351 353 354 354 356 356 356 357 357 357 358 358 358 357 357 357 356 357 357 356 356 356 355 355 355 355 354 353 352 352 351 351 351 350 350 350 349 349 348 347 345 344 343
345 345 345 346 345 346 348 347 348 349 349 347 345 345 346 348 348 349 350 350 351 352 353 355 356 356 357 357 357 358 358 358 358 358 358 358 357 357 357 357 357 356 356 356 355 355 354 354 353 352 352 351 351 350 350 349 349 349 348 347 345 343 342
343 343 343 345 345 346 347 347 348 349 349 349 346 345 347 347 349 350 350 351 352 352 353 355 356 356 357 357 357 358 358 358 358 358 358 359 358 358 358 358 357 357 356 356 356 355 354 354 354 353 352 352 351 351 350 350 349 349 348 347 345 343 342
341 341 342 344 344 346 347 347 348 348 349 351 349 347 347 348 349 350 350 352 352 353 355 355 356 357 357 358 358 358 358 358 359 359 359 359 359 359 358 358 358 358 357 357 356 355 355 354 354 353 353 352 351 351 350 350 349 349 348 347 345 344 343
343 341 343 344 344 346 347 347 348 349 350 352 350 348 347 349 350 350 351 352 353 354 355 356 357 358 358 358 359 358 359 359 359 359 360 359 359 359 359 359 358 358 358 357 356 356 355 354 354 354 353 353 352 351 350 350 349 349 348 347 346 345 344
350 344 343 345 345 346 348 347 348 349 349 350 348 346 347 349 350 351 351 352 353 355 356 357 357 358 359 359 359 359 360 359 359 360 360 360 360 359 359 359 358 358 358 357 357 356 355 355 354 354 354 353 352 352 351 350 350 349 348 347 346 345 345
351 346 344 345 346 346 345 344 344 347 347 346 345 346 348 350 350 351 352 352 353 355 356 357 358 358 359 360 359 360 360 359 360 360 360 360 360 360 360 359 359 359 358 357 357 356 356 355 355 355 354 354 353 353 352 351 350 349 349 347 347 346 345
351 348 344 342 344 344 344 344 343 344 344 344 344 346 347 349 351 351 352 353 353 355 356 357 359 359 359 360 360 361 361 360 361 360 360 361 360 360 360 359 359 359 358 358 357 356 356 356 355 355 354 354 353 353 352 352 351 350 349 348 347 347 346
355 352 347 344 344 345 347 349 347 346 344 342 344 346 347 348 351 351 352 353 354 354 356 357 359 359 360 360 361 361 361 361 361 361 361 361 360 360 360 359 359 359 358 358 357 357 356 355 355 355 355 354 354 353 353 352 351 350 349 348 348 348 347
355 353 350 348 348 351 354 351 345 344 344 342 343 346 347 347 350 351 352 353 353 354 356 357 358 359 360 360 361 361 361 361 361 361 361 361 360 360 360 360 359 359 358 358 357 357 356 356 356 356 355 354 354 353 353 353 352 351 350 349 349 348 347
347 349 351 350 348 347 344 341 340 339 341 344 344 345 347 347 349 350 351 352 353 354 355 356 357 358 359 360 361 361 361 361 361 361 361 361 361 360 360 360 359 359 358 358 357 357 356 356 356 355 355 355 354 354 354 353 352 352 351 351 350 349 348
345 346 351 351 354 355 344 337 340 341 341 345 345 345 347 347 348 350 351 353 354 353 354 355 356 357 358 359 360 361 361 362 361 362 361 361 361 361 360 360 360 359 359 358 357 357 356 356 356 355 356 355 354 354 354 353 353 352 352 352 351 350 348
367 370 366 349 345 354 350 340 340 342 343 344 345 346 347 347 348 351 351 353 353 353 354 354 355 356 357 358 359 360 361 361 362 361 361 361 361 360 361 360 360 359 359 358 358 357 356 356 356 355 355 355 355 355 354 353 353 352 352 352 351 351 349
368 376 382 363 345 342 343 341 345 347 345 344 345 346 347 347 348 350 351 353 354 353 354 354 354 355 356 357 358 359 360 361 361 362 361 361 361 360 360 360 360 360 359 358 358 358 357 356 356 356 355 355 355 355 354 354 353 352 352 352 352 351 350
355 356 362 362 354 348 344 342 346 348 346 345 346 346 347 348 349 349 350 352 354 354 355 354 354 355 355 356 357 358 360 360 361 361 361 361 361 361 360 360 360 360 359 359 358 358 357 357 356 356 356 355 355 355 354 354 354 353 352 352 351 351 350
361 360 355 354 354 351 348 347 348 348 349 350 349 349 349 349 349 349 349 350 352 354 355 355 355 355 355 356 357 357 359 360 360 361 361 361 361 360 360 360 360 360 359 359 358 358 357 357 356 356 356 356 355 355 355 354 354 354 353 351 351 351 350
357 360 356 354 354 352 352 357 354 348 349 353 353 354 354 350 349 350 349 349 351 352 354 354 355 355 355 355 356 357 358 359 360 361 361 361 361 360 360 360 360 360 360 359 359 358 357 356 356 356 354 354 354 354 355 354 354 354 353 352 351 350 349
350 350 349 350 351 349 348 352 350 345 346 351 354 356 356 355 353 352 350 351 351 351 352 353 354 355 356 355 355 356 357 358 360 360 361 361 361 360 360 360 359 359 360 359 359 358 357 356 355 354 352 351 351 351 352 352 352 352 352 351 350 349 348
345 347 348 348 347 347 346 346 345 345 346 348 351 354 356 357 356 355 354 354 354 354 354 354 354 355 355 355 355 355 355 356 358 359 361 361 361 360 360 359 359 359 359 359 358 357 356 354 353 352 350 349 348 348 349 350 351 351 350 350 349 348 347
342 344 346 345 345 346 345 344 345 345 345 346 348 350 353 356 356 356 357 357 358 358 357 355 356 355 354 354 355 354 354 355 356 358 359 361 361 361 360 360 359 359 359 358 358 356 354 352 351 350 348 347 345 345 346 348 350 350 349 348 347 346 346
344 343 344 344 344 343 342 345 349 349 346 346 347 347 351 355 356 357 358 359 359 360 359 358 357 356 356 355 354 353 354 354 354 356 358 360 361 361 361 360 360 359 358 357 356 354 352 349 348 346 345 344 343 343 343 345 347 348 347 346 345 343 343
344 343 342 341 341 341 340 342 347 348 346 345 345 346 348 351 354 356 358 359 360 361 361 361 359 358 357 356 354 353 353 353 354 356 357 359 361 361 361 361 359 358 357 357 356 353 348 346 345 344 343 342 341 340 339 340 343 345 344 343 342 341 340
345 343 341 340 341 342 341 340 341 342 341 341 342 343 344 346 348 351 354 357 359 361 363 362 362 361 360 358 357 355 353 353 355 355 357 359 360 360 360 360 359 358 357 356 356 353 350 349 347 345 344 343 341 339 338 338 340 343 343 341 341 340 339
346 345 343 342 343 343 342 342 341 340 339 339 339 340 341 343 344 346 349 353 356 359 361 363 363 362 362 362 361 359 358 358 357 358 358 358 357 356 355 354 355 355 354 353 353 353 355 354 349 345 345 344 340 339 341 343 344 343 342 341 340 340 339
345 346 346 345 345 345 344 344 344 343 342 341 338 336 339 342 343 344 345 348 351 354 356 359 359 356 354 354 353 353 354 354 355 356 355 353 352 350 344 340 341 345 348 350 350 350 352 351 346 344 347 347 342 340 342 345 345 342 341 341 340 339 338
342 343 344 344 345 346 346 345 345 344 344 342 339 337 339 341 343 343 343 344 347 350 352 354 353 348 344 343 343 343 343 342 342 344 344 345 347 344 338 334 333 334 338 344 347 347 346 346 345 345 347 347 346 344 343 342 342 341 340 339 338 337 337